Surface/Precipitation History
01/23/2017 14:22  to  1/24/2017 14:22
Change End Date:
Date/Time
(MST)
Sf
Temp Chem Water Layer Surface Precipitation
Sfc Pvt Sub Frz Factor Pct Dpth DpthThk IcePct Cond Salin FI Type Intens Accum Rate
01/24/2017 14:11 Dry 36.9F - - - - - - - - 0 mhos 0 - None None - -
01/24/2017 14:10 Dry 37.2F - - - - - - - - 0 mhos 0 - None None - -
01/24/2017 14:00 Dry 36.1F - - - - - - - - 0 mhos 0 - None None - -
01/24/2017 13:56 Dry 36.0F - - - - - - - - 0 mhos 0 - None None - -
01/24/2017 13:50 Dry 37.2F - - - - - - - - 0 mhos 0 - None None - -
01/24/2017 13:41 Dry 39.6F - - - - - - - - 0 mhos 0 - None None - -
01/24/2017 13:40 Dry 39.6F - - - - - - - - 0 mhos 0 - None None - -
01/24/2017 13:30 Wet 33.6F - - 32F 45 0% 0.00 in - 0% 0 mhos 0 - None None - -
01/24/2017 13:26 Dry 34.3F - - - - - - - - 0 mhos 0 - None None - -
01/24/2017 13:19 Dry 37.0F - - - - - - - - 0 mhos 0 - None None - -
01/24/2017 13:11 Dry 45.0F - - - - - - - - 0 mhos 0 - None None - -
01/24/2017 13:09 Dry 45.3F - - - - - - - - 0 mhos 0 - None None - -
01/24/2017 12:59 Dry 39.7F - - - - - - - - 0 mhos 0 - None None - -
01/24/2017 12:56 Dry 38.5F - - - - - - - - 0 mhos 0 - None None - -
01/24/2017 12:49 Dry 40.5F - - - - - - - - 0 mhos 0 - None None - -
Date/Time
(MST)
Sf
Temp Chem Water Layer Surface Precipitation
Sfc Pvt Sub Frz Factor Pct Dpth DpthThk IcePct Cond Salin FI Type Intens Accum Rate
01/24/2017 12:41 Dry 41.2F - - - - - - - - 0 mhos 0 - None None - -
01/24/2017 12:39 Wet 40.1F - - 32F 45 0% 0.00 in - 0% 0 mhos 0 - None None - -
01/24/2017 12:29 Wet 34.0F - - 32F 25 0% 0.00 in - 0% 0 mhos 0 - None None - -
01/24/2017 12:26 Wet 36.1F - - 32F 30 0% 0.00 in - 0% 0 mhos 0 - None None - -
01/24/2017 12:19 Wet 36.9F - - 32F 25 0% 0.00 in - 0% 0 mhos 0 - None None - -
01/24/2017 12:11 Wet 35.1F - - 32F 15 0% 0.00 in - 0% 0 mhos 0 - None None - -
01/24/2017 12:09 Wet 33.8F - - 32F 15 0% 0.00 in - 0% 0 mhos 0 - None None - -
01/24/2017 11:59 Wet 32.2F - - 32F 15 0% 0.00 in - 0% 0 mhos 0 - None None - -
01/24/2017 11:56 Ice Warning 31.6F - - 32F 10 0% - - 100% 0 mhos 0 - None None - -
01/24/2017 11:49 Ice Warning 29.7F - - 32F 10 0% - - 100% 0 mhos 0 - None None - -
01/24/2017 11:41 Ice Warning 28.8F - - 32F 10 0% - - 100% 0 mhos 0 - None None - -
01/24/2017 11:39 Ice Warning 28.9F - - 32F 10 0% - - 100% 0 mhos 0 - None None - -
01/24/2017 11:29 Ice Warning 27.9F - - 32F 5 0% - - 100% 0 mhos 0 - None None - -
01/24/2017 11:26 Ice Warning 27.7F - - 32F 5 0% - - 100% 0 mhos 0 - None None - -
01/24/2017 11:19 Ice Warning 27.3F - - 32F 5 0% - - 100% 0 mhos 0 - None None - -
Date/Time
(MST)
Sf
Temp Chem Water Layer Surface Precipitation
Sfc Pvt Sub Frz Factor Pct Dpth DpthThk IcePct Cond Salin FI Type Intens Accum Rate
01/24/2017 11:11 Ice Warning 26.1F - - 32F 5 0% - - 100% 0 mhos 0 - None None - -
01/24/2017 11:09 Ice Warning 25.9F - - 32F 5 0% - - 100% 0 mhos 0 - None None - -
01/24/2017 10:59 Ice Warning 27.1F - - 32F 5 0% - - 100% 0 mhos 0 - None None - -
01/24/2017 10:56 Ice Warning 28.8F - - 32F 5 0% - - 100% 0 mhos 0 - None None - -
01/24/2017 10:49 Ice Warning 26.6F - - 32F 5 0% - - 100% 0 mhos 0 - None None - -
01/24/2017 10:41 Ice Warning 24.6F - - 32F 5 0% - - 100% 0 mhos 0 - None None - -
01/24/2017 10:39 Ice Warning 24.6F - - 32F 5 0% - - 100% 0 mhos 0 - None None - -
01/24/2017 10:29 Ice Warning 25.5F - - 32F 5 0% - - 100% 0 mhos 0 - None None - -
01/24/2017 10:26 Ice Warning 25.3F - - 32F 5 0% - - 100% 0 mhos 0 - None None - -
01/24/2017 10:19 Ice Warning 24.4F - - 32F 5 0% - - 100% 0 mhos 0 - None None - -
01/24/2017 10:11 Ice Warning 24.1F - - 32F 5 0% - - 100% 0 mhos 0 - None None - -
01/24/2017 10:08 Ice Warning 23.9F - - 32F 5 0% - - 100% 0 mhos 0 - None None - -
01/24/2017 09:58 Ice Warning 23.5F - - 32F 20 0% - - 100% 0 mhos 0 - None None - -
01/24/2017 09:56 Ice Warning 23.0F - - 32F 25 0% - - 100% 0 mhos 0 - None None - -
01/24/2017 09:48 Ice Warning 22.6F - - 32F 45 0% - - 100% 0 mhos 0 - None None - -
Date/Time
(MST)
Sf
Temp Chem Water Layer Surface Precipitation
Sfc Pvt Sub Frz Factor Pct Dpth DpthThk IcePct Cond Salin FI Type Intens Accum Rate
01/24/2017 09:41 Ice Warning 22.1F - - 32F 60 0% - - 100% 0 mhos 0 - None None - -
01/24/2017 09:38 Ice Warning 22.1F - - 32F 60 0% - - 100% 0 mhos 0 - None None - -
01/24/2017 09:28 Ice Warning 21.0F - - 32F 80 0% - - 100% 0 mhos 0 - None None - -
01/24/2017 09:26 Ice Warning 21.0F - - 32F 85 0% - - 100% 0 mhos 0 - None None - -
01/24/2017 09:18 Ice Warning 20.7F - - 32F 85 0% - - 100% 0 mhos 0 - None None - -
01/24/2017 09:11 Ice Warning 20.5F - - 32F 95 0% - - 100% 0 mhos 0 - None None - -
01/24/2017 09:08 Ice Warning 20.3F - - 32F 95 0% - - 100% 0 mhos 0 - Yes - - -
01/24/2017 08:58 Ice Warning 19.9F - - 32F 95 0% - - 100% 0 mhos 0 - Yes - - -
01/24/2017 08:56 Ice Warning 19.9F - - 32F 95 0% - - 100% 0 mhos 0 - Yes - - -
01/24/2017 08:48 Ice Warning 19.6F - - 32F 95 0% - - 100% 1 mhos 0 - None None - -
01/24/2017 08:40 Ice Warning 19.4F - - 32F 95 0% - - 100% 1 mhos 0 - None None - -
01/24/2017 08:38 Ice Warning 19.4F - - 32F 95 0% - - 100% 1 mhos 0 - None None - -
01/24/2017 08:28 Ice Warning 19.4F - - 32F 95 0% - - 100% 1 mhos 0 - None None - -
01/24/2017 08:18 Ice Warning 19.6F - - 32F 95 0% - - 100% 1 mhos 0 - None None - -
01/24/2017 08:11 Ice Warning 19.2F - - 32F 95 0% - - 100% 1 mhos 0 - Yes - - -
Date/Time
(MST)
Sf
Temp Chem Water Layer Surface Precipitation
Sfc Pvt Sub Frz Factor Pct Dpth DpthThk IcePct Cond Salin FI Type Intens Accum Rate
01/24/2017 08:08 Ice Warning 19.2F - - 32F 95 0% - - 100% 1 mhos 0 - None None - -
01/24/2017 07:58 Ice Warning 19.4F - - 32F 95 0% - - 100% 1 mhos 0 - Yes - - -
01/24/2017 07:56 Ice Warning 19.4F - - 32F 95 0% - - 100% 1 mhos 0 - Yes - - -
01/24/2017 07:48 Ice Warning 19.6F - - 32F 95 0% - - 100% 1 mhos 0 - Yes - - -
01/24/2017 07:38 Ice Warning 19.2F - - 32F 95 0% - - 100% 1 mhos 0 - Yes - - -
01/24/2017 07:28 Ice Warning 19.4F - - 32F 95 0% - - 100% 0 mhos 0 - Yes - - -
01/24/2017 07:26 Ice Warning 19.4F - - 32F 95 0% - - 100% 0 mhos 0 - Yes - - -
01/24/2017 07:18 Ice Warning 19.4F - - 32F 95 0% - - 100% 0 mhos 0 - Yes - - -
01/24/2017 07:11 Ice Warning 19.6F - - 32F 95 0% - - 100% 0 mhos 0 - Yes - - -
01/24/2017 07:08 Ice Warning 19.4F - - 32F 95 0% - - 100% 0 mhos 0 - Yes - - -
01/24/2017 06:58 Ice Warning 19.6F - - 32F 95 0% - - 100% 1 mhos 0 - Yes - - -
01/24/2017 06:56 Ice Warning 19.6F - - 32F 95 0% - - 100% 1 mhos 0 - Yes - - -
01/24/2017 06:47 Ice Warning 19.6F - - 32F 95 0% - - 100% 1 mhos 0 - None None - -
01/24/2017 06:41 Ice Warning 19.6F - - 32F 95 0% - - 100% 0 mhos 0 - Yes - - -
01/24/2017 06:37 Ice Warning 19.9F - - 32F 95 0% - - 100% 1 mhos 0 - None None - -
Date/Time
(MST)
Sf
Temp Chem Water Layer Surface Precipitation
Sfc Pvt Sub Frz Factor Pct Dpth DpthThk IcePct Cond Salin FI Type Intens Accum Rate
01/24/2017 06:27 Ice Warning 19.8F - - 32F 95 0% - - 100% 1 mhos 0 - None None - -
01/24/2017 06:26 Ice Warning 19.8F - - 32F 95 0% - - 100% 1 mhos 0 - Yes - - -
01/24/2017 06:17 Ice Warning 20.1F - - 32F 95 0% - - 100% 1 mhos 0 - None None - -
01/24/2017 06:11 Ice Warning 19.9F - - 32F 95 0% - - 100% 1 mhos 0 - None None - -
01/24/2017 06:07 Ice Warning 19.9F - - 32F 95 0% - - 100% 1 mhos 0 - None None - -
01/24/2017 05:57 Ice Warning 20.1F - - 32F 95 0% - - 100% 1 mhos 0 - Yes - - -
01/24/2017 05:56 Ice Warning 20.1F - - 32F 95 0% - - 100% 1 mhos 0 - None None - -
01/24/2017 05:47 Ice Warning 20.1F - - 32F 95 0% - - 100% 1 mhos 0 - None None - -
01/24/2017 05:41 Ice Warning 20.3F - - 32F 95 0% - - 100% 1 mhos 0 - None None - -
01/24/2017 05:37 Ice Warning 20.3F - - 32F 95 0% - - 100% 1 mhos 0 - Yes - - -
01/24/2017 05:27 Ice Warning 20.3F - - 32F 95 0% - - 100% 1 mhos 0 - None None - -
01/24/2017 05:26 Ice Warning 20.3F - - 32F 95 0% - - 100% 1 mhos 0 - None None - -
01/24/2017 05:17 Ice Warning 20.3F - - 32F 95 0% - - 100% 1 mhos 0 - Yes - - -
01/24/2017 05:11 Ice Warning 20.3F - - 32F 95 0% - - 100% 0 mhos 0 - Yes - - -
01/24/2017 05:07 Ice Warning 20.3F - - 32F 95 0% - - 100% 0 mhos 0 - Yes - - -
Date/Time
(MST)
Sf
Temp Chem Water Layer Surface Precipitation
Sfc Pvt Sub Frz Factor Pct Dpth DpthThk IcePct Cond Salin FI Type Intens Accum Rate
01/24/2017 04:57 Ice Warning 20.5F - - 32F 95 0% - - 100% 0 mhos 0 - Yes - - -
01/24/2017 04:56 Ice Warning 20.5F - - 32F 95 0% - - 100% 1 mhos 0 - Yes - - -
01/24/2017 04:47 Ice Warning 20.3F - - 32F 95 0% - - 100% 1 mhos 0 - Yes - - -
01/24/2017 04:37 Ice Warning 20.3F - - 32F 95 0% - - 100% 0 mhos 0 - Yes - - -
01/24/2017 04:27 Ice Warning 20.3F - - 32F 95 0% - - 100% 0 mhos 0 - Yes - - -
01/24/2017 04:26 Ice Warning 20.3F - - 32F 95 0% - - 100% 1 mhos 0 - None None - -
01/24/2017 04:17 Ice Warning 20.3F - - 32F 95 0% - - 100% 0 mhos 0 - Yes - - -
01/24/2017 04:11 Ice Warning 20.3F - - 32F 95 0% - - 100% 0 mhos 0 - None None - -
01/24/2017 04:07 Ice Warning 20.3F - - 32F 95 0% - - 100% 0 mhos 0 - Yes - - -
01/24/2017 03:57 Ice Warning 20.3F - - 32F 95 0% - - 100% 0 mhos 0 - Yes - - -
01/24/2017 03:56 Ice Warning 20.3F - - 32F 95 0% - - 100% 0 mhos 0 - Yes - - -
01/24/2017 03:47 Ice Warning 20.3F - - 32F 95 0% - - 100% 0 mhos 0 - Yes - - -
01/24/2017 03:41 Ice Warning 20.5F - - 32F 95 0% - - 100% 0 mhos 0 - Yes - - -
01/24/2017 03:36 Ice Warning 20.3F - - 32F 95 0% - - 100% 0 mhos 0 - Yes - - -
01/24/2017 03:26 Ice Warning 20.3F - - 32F 95 0% - - 100% 0 mhos 0 - Yes - - -
Date/Time
(MST)
Sf
Temp Chem Water Layer Surface Precipitation
Sfc Pvt Sub Frz Factor Pct Dpth DpthThk IcePct Cond Salin FI Type Intens Accum Rate
01/24/2017 03:26 Ice Warning 20.3F - - 32F 95 0% - - 100% 0 mhos 0 - Yes - - -
01/24/2017 03:16 Ice Warning 20.3F - - 32F 75 0% - - 100% 0 mhos 0 - Yes - - -
01/24/2017 03:11 Ice Warning 20.3F - - 32F 75 0% - - 100% 0 mhos 0 - Yes - - -
01/24/2017 03:06 Ice Warning 20.3F - - 32F 75 0% - - 100% 0 mhos 0 - Yes - - -
01/24/2017 02:56 Ice Warning 20.5F - - 32F 75 0% - - 100% 0 mhos 0 - Yes - - -
01/24/2017 02:56 Ice Warning 20.3F - - 32F 75 0% - - 100% 0 mhos 0 - Yes - - -
01/24/2017 02:46 Ice Warning 20.3F - - 32F 75 0% - - 100% 0 mhos 0 - Yes - - -
01/24/2017 02:36 Ice Warning 20.3F - - 32F 70 0% - - 100% 0 mhos 0 - None None - -
01/24/2017 02:26 Ice Warning 20.5F - - 32F 75 0% - - 100% 0 mhos 0 - Yes - - -
01/24/2017 02:26 Ice Warning 20.5F - - 32F 70 0% - - 100% 0 mhos 0 - Yes - - -
01/24/2017 02:16 Ice Warning 20.8F - - 32F 75 0% - - 100% 0 mhos 0 - Yes - - -
01/24/2017 02:11 Ice Warning 20.7F - - 32F 75 0% - - 100% 0 mhos 0 - Yes - - -
01/24/2017 02:06 Ice Warning 20.8F - - 32F 75 0% - - 100% 0 mhos 0 - Yes - - -
01/24/2017 01:56 Ice Warning 21.0F - - 32F 75 0% - - 100% 0 mhos 0 - Yes - - -
01/24/2017 01:56 Ice Warning 21.0F - - 32F 75 0% - - 100% 0 mhos 0 - Yes - - -
Date/Time
(MST)
Sf
Temp Chem Water Layer Surface Precipitation
Sfc Pvt Sub Frz Factor Pct Dpth DpthThk IcePct Cond Salin FI Type Intens Accum Rate
01/24/2017 01:46 Ice Warning 21.2F - - 32F 75 0% - - 100% 0 mhos 0 - Yes - - -
01/24/2017 01:41 Ice Warning 21.2F - - 32F 75 0% - - 100% 0 mhos 0 - Yes - - -
01/24/2017 01:36 Ice Warning 21.2F - - 32F 75 0% - - 100% 0 mhos 0 - Yes - - -
01/24/2017 01:26 Ice Warning 21.2F - - 32F 75 0% - - 100% 0 mhos 0 - Yes - - -
01/24/2017 01:26 Ice Warning 21.2F - - 32F 75 0% - - 100% 0 mhos 0 - Yes - - -
01/24/2017 01:16 Ice Warning 21.4F - - 32F 70 0% - - 100% 0 mhos 0 - Yes - - -
01/24/2017 01:11 Ice Warning 21.4F - - 32F 70 0% - - 100% 0 mhos 0 - Yes - - -
01/24/2017 01:06 Ice Warning 21.4F - - 32F 70 0% - - 100% 0 mhos 0 - Yes - - -
01/24/2017 00:56 Ice Warning 21.6F - - 32F 60 0% - - 100% 0 mhos 0 - Yes - - -
01/24/2017 00:56 Ice Warning 21.6F - - 32F 60 0% - - 100% 0 mhos 0 - Yes - - -
01/24/2017 00:46 Ice Warning 21.7F - - 32F 45 0% - - 100% 0 mhos 0 - Yes - - -
01/24/2017 00:41 Ice Warning 21.7F - - 32F 35 0% - - 100% 0 mhos 0 - None None - -
01/24/2017 00:36 Ice Warning 21.7F - - 32F 35 0% - - 100% 0 mhos 0 - Yes - - -
01/24/2017 00:26 Ice Warning 21.7F - - 32F 30 0% - - 100% 0 mhos 0 - Yes - - -
01/24/2017 00:25 Ice Warning 21.7F - - 32F 30 0% - - 100% 0 mhos 0 - Yes - - -
Date/Time
(MST)
Sf
Temp Chem Water Layer Surface Precipitation
Sfc Pvt Sub Frz Factor Pct Dpth DpthThk IcePct Cond Salin FI Type Intens Accum Rate
01/24/2017 00:15 Ice Warning 21.6F - - 32F 25 0% - - 100% 0 mhos 0 - None None - -
01/24/2017 00:11 Ice Warning 21.7F - - 32F 25 0% - - 100% 0 mhos 0 - Yes - - -
01/24/2017 00:05 Ice Warning 21.9F - - 32F 20 0% - - 100% 0 mhos 0 - Yes - - -
01/23/2017 23:56 Ice Warning 21.7F - - 32F 25 0% - - 100% 0 mhos 0 - None None - -
01/23/2017 23:55 Ice Warning 21.7F - - 32F 25 0% - - 100% 0 mhos 0 - None None - -
01/23/2017 23:45 Ice Warning 22.1F - - 32F 25 0% - - 100% 0 mhos 0 - None None - -
01/23/2017 23:41 Ice Warning 21.9F - - 32F 25 0% - - 100% 0 mhos 0 - None None - -
01/23/2017 23:35 Ice Warning 22.1F - - 32F 25 0% - - 100% 0 mhos 0 - Yes - - -
01/23/2017 23:26 Ice Warning 21.9F - - 32F 35 0% - - 100% 0 mhos 0 - None None - -
01/23/2017 23:25 Ice Warning 21.9F - - 32F 35 0% - - 100% 0 mhos 0 - None None - -
01/23/2017 23:15 Ice Warning 22.1F - - 32F 30 0% - - 100% 0 mhos 0 - Yes - - -
01/23/2017 23:11 Ice Warning 22.1F - - 32F 30 0% - - 100% 0 mhos 0 - None None - -
01/23/2017 23:05 Ice Warning 22.3F - - 32F 30 0% - - 100% 0 mhos 0 - None None - -
01/23/2017 22:56 Ice Warning 22.3F - - 32F 35 0% - - 100% 0 mhos 0 - Yes - - -
01/23/2017 22:55 Ice Warning 22.3F - - 32F 30 0% - - 100% 0 mhos 0 - None None - -
Date/Time
(MST)
Sf
Temp Chem Water Layer Surface Precipitation
Sfc Pvt Sub Frz Factor Pct Dpth DpthThk IcePct Cond Salin FI Type Intens Accum Rate
01/23/2017 22:45 Ice Warning 22.3F - - 32F 30 0% - - 100% 0 mhos 0 - None None - -
01/23/2017 22:41 Ice Warning 22.5F - - 32F 30 0% - - 100% 0 mhos 0 - Yes - - -
01/23/2017 22:35 Ice Warning 22.5F - - 32F 30 0% - - 100% 0 mhos 0 - None None - -
01/23/2017 22:26 Ice Warning 22.5F - - 32F 30 0% - - 100% 0 mhos 0 - None None - -
01/23/2017 22:25 Ice Warning 22.5F - - 32F 30 0% - - 100% 0 mhos 0 - None None - -
01/23/2017 22:15 Ice Warning 22.5F - - 32F 30 0% - - 100% 0 mhos 0 - None None - -
01/23/2017 22:11 Ice Warning 22.5F - - 32F 30 0% - - 100% 0 mhos 0 - Yes - - -
01/23/2017 22:05 Ice Warning 22.6F - - 32F 40 0% - - 100% 0 mhos 0 - None None - -
01/23/2017 21:56 Ice Warning 22.5F - - 32F 40 0% - - 100% 0 mhos 0 - Yes - - -
01/23/2017 21:55 Ice Warning 22.5F - - 32F 40 0% - - 100% 0 mhos 0 - Yes - - -
01/23/2017 21:45 Ice Warning 22.6F - - 32F 45 0% - - 100% 0 mhos 0 - Yes - - -
01/23/2017 21:41 Ice Warning 22.8F - - 32F 45 0% - - 100% 0 mhos 0 - None None - -
01/23/2017 21:35 Ice Warning 22.8F - - 32F 55 0% - - 100% 0 mhos 0 - Yes - - -
01/23/2017 21:26 Ice Warning 23.0F - - 32F 50 0% - - 100% 0 mhos 0 - Yes - - -
01/23/2017 21:25 Ice Warning 22.8F - - 32F 45 0% - - 100% 0 mhos 0 - Yes - - -
Date/Time
(MST)
Sf
Temp Chem Water Layer Surface Precipitation
Sfc Pvt Sub Frz Factor Pct Dpth DpthThk IcePct Cond Salin FI Type Intens Accum Rate
01/23/2017 21:15 Ice Warning 23.2F - - 32F 40 0% - - 100% 0 mhos 0 - None None - -
01/23/2017 21:04 Ice Warning 23.2F - - 32F 35 0% - - 100% 0 mhos 0 - Yes - - -
01/23/2017 20:56 Ice Warning 23.2F - - 32F 35 0% - - 100% 0 mhos 0 - Yes - - -
01/23/2017 20:54 Ice Warning 23.2F - - 32F 35 0% - - 100% 0 mhos 0 - Yes - - -
01/23/2017 20:44 Ice Warning 23.2F - - 32F 25 0% - - 100% 0 mhos 0 - Yes - - -
01/23/2017 20:41 Ice Warning 23.2F - - 32F 30 0% - - 100% 0 mhos 0 - None None - -
01/23/2017 20:34 Ice Warning 23.2F - - 32F 40 0% - - 100% 0 mhos 0 - Yes - - -
01/23/2017 20:26 Ice Warning 23.2F - - 32F 70 0% - - 100% 0 mhos 0 - Yes - - -
01/23/2017 20:24 Ice Warning 23.4F - - 32F 70 0% - - 100% 0 mhos 0 - Yes - - -
01/23/2017 20:14 Ice Warning 23.4F - - 32F 85 0% - - 100% 0 mhos 0 - Yes - - -
01/23/2017 20:11 Ice Warning 23.4F - - 32F 85 0% - - 100% 0 mhos 0 - Yes - - -
01/23/2017 20:04 Ice Warning 23.5F - - 32F 85 0% - - 100% 0 mhos 0 - Yes - - -
01/23/2017 19:56 Ice Warning 23.9F - - 32F 85 0% - - 100% 0 mhos 0 - Yes - - -
01/23/2017 19:54 Ice Warning 23.7F - - 32F 80 0% - - 100% 0 mhos 0 - Yes - - -
01/23/2017 19:44 Ice Warning 24.3F - - 32F 65 0% - - 100% 0 mhos 0 - Yes - - -
Date/Time
(MST)
Sf
Temp Chem Water Layer Surface Precipitation
Sfc Pvt Sub Frz Factor Pct Dpth DpthThk IcePct Cond Salin FI Type Intens Accum Rate
01/23/2017 19:34 Ice Warning 24.3F - - 32F 40 0% - - 100% 0 mhos 0 - Yes - - -
01/23/2017 19:27 Ice Warning 24.4F - - 32F 25 0% - - 100% 0 mhos 0 - Yes - - -
01/23/2017 19:24 Ice Warning 24.3F - - 32F 40 0% - - 100% 0 mhos 0 - None None - -
01/23/2017 19:14 Ice Warning 24.4F - - 32F 35 0% - - 100% 0 mhos 0 - None None - -
01/23/2017 19:11 Ice Warning 24.6F - - 32F 30 0% - - 100% 0 mhos 0 - Yes - - -
01/23/2017 19:04 Ice Warning 24.8F - - 32F 15 0% - - 100% 0 mhos 0 - None None - -
01/23/2017 18:56 Ice Warning 24.8F - - 32F 20 0% - - 100% 0 mhos 0 - Yes - - -
01/23/2017 18:54 Ice Warning 24.8F - - 32F 15 0% - - 100% 0 mhos 0 - Yes - - -
01/23/2017 18:44 Ice Warning 25.2F - - 32F 15 0% - - 100% 0 mhos 0 - Yes - - -
01/23/2017 18:41 Ice Warning 25.0F - - 32F 10 0% - - 100% 0 mhos 0 - Yes - - -
01/23/2017 18:34 Ice Warning 25.0F - - 32F 5 0% - - 100% 0 mhos 0 - None None - -
01/23/2017 18:26 Ice Warning 25.3F - - 32F 5 0% - - 100% 0 mhos 0 - Yes - - -
01/23/2017 18:24 Ice Warning 25.2F - - 32F 5 0% - - 100% 0 mhos 0 - Yes - - -
01/23/2017 18:14 Ice Warning 25.5F - - 32F 5 0% - - 100% 0 mhos 0 - Yes - - -
01/23/2017 18:11 Ice Warning 25.5F - - 32F 5 0% - - 100% 0 mhos 0 - Yes - - -
Date/Time
(MST)
Sf
Temp Chem Water Layer Surface Precipitation
Sfc Pvt Sub Frz Factor Pct Dpth DpthThk IcePct Cond Salin FI Type Intens Accum Rate
01/23/2017 18:04 Ice Warning 25.7F - - 32F 5 0% - - 100% 0 mhos 0 - Yes - - -
01/23/2017 17:53 Ice Warning 25.7F - - 32F 5 0% - - 100% 0 mhos 0 - Yes - - -
01/23/2017 17:43 Ice Warning 26.1F - - 32F 5 0% - - 100% 0 mhos 0 - Yes - - -
01/23/2017 17:41 Ice Warning 26.1F - - 32F 5 0% - - 100% 0 mhos 0 - Yes - - -
01/23/2017 17:33 Ice Warning 26.4F - - 32F 5 0% - - 100% 0 mhos 0 - Yes - - -
01/23/2017 17:25 Ice Warning 26.8F - - 32F 5 0% - - 100% 0 mhos 0 - Yes - - -
01/23/2017 17:23 Ice Warning 27.0F - - 32F 5 0% - - 100% 0 mhos 0 - Yes - - -
01/23/2017 17:13 Ice Warning 27.1F - - 32F 5 0% - - 100% 0 mhos 0 - None None - -
01/23/2017 17:03 Ice Warning 27.3F - - 32F 5 0% - - 100% 0 mhos 0 - Yes - - -
01/23/2017 16:55 Ice Warning 27.9F - - 32F 5 0% - - 100% 0 mhos 0 - Yes - - -
01/23/2017 16:53 Ice Warning 28.0F - - 32F 5 0% - - 100% 0 mhos 0 - None None - -
01/23/2017 16:43 Ice Warning 28.4F - - 32F 5 0% - - 100% 0 mhos 0 - None None - -
01/23/2017 16:40 Ice Warning 28.6F - - 32F 5 0% - - 100% 0 mhos 0 - None None - -
01/23/2017 16:33 Ice Warning 28.9F - - 32F 5 0% - - 100% 0 mhos 0 - None None - -
01/23/2017 16:26 Ice Warning 29.3F - - 32F 5 0% - - 100% 0 mhos 0 - None None - -
Date/Time
(MST)
Sf
Temp Chem Water Layer Surface Precipitation
Sfc Pvt Sub Frz Factor Pct Dpth DpthThk IcePct Cond Salin FI Type Intens Accum Rate
01/23/2017 16:23 Ice Warning 29.7F - - 32F 5 0% - - 100% 0 mhos 0 - None None - -
01/23/2017 16:13 Ice Warning 30.0F - - 32F 5 0% - - 100% 0 mhos 0 - None None - -
01/23/2017 16:11 Ice Warning 30.0F - - 32F 5 0% - - 100% 0 mhos 0 - None None - -
01/23/2017 16:03 Ice Warning 30.6F - - 32F 5 0% - - 100% 0 mhos 0 - None None - -
01/23/2017 15:55 Ice Warning 31.1F - - 32F 5 0% - - 100% 0 mhos 0 - None None - -
01/23/2017 15:53 Ice Warning 31.3F - - 32F 5 0% - - 100% 0 mhos 0 - None None - -
01/23/2017 15:43 Ice Warning 31.8F - - 32F 5 0% - - 100% 0 mhos 0 - None None - -
01/23/2017 15:41 Ice Warning 32.0F - - 32F 5 0% - - 100% 0 mhos 0 - None None - -
01/23/2017 15:33 Wet 32.4F - - 32F 5 0% 0.00 in - 0% 0 mhos 0 - None None - -
01/23/2017 15:25 Wet 32.7F - - 32F 5 0% 0.00 in - 0% 0 mhos 0 - None None - -
01/23/2017 15:23 Wet 32.9F - - 32F 5 0% 0.00 in - 0% 0 mhos 0 - None None - -
01/23/2017 15:13 Wet 33.4F - - 32F 5 0% 0.00 in - 0% 0 mhos 0 - None None - -
01/23/2017 15:11 Wet 33.6F - - 32F 5 0% 0.00 in - 0% 0 mhos 0 - None None - -
01/23/2017 15:03 Wet 34.2F - - 32F 5 0% 0.00 in - 0% 0 mhos 0 - None None - -
01/23/2017 14:56 Wet 34.9F - - 32F 5 0% 0.00 in - 0% 0 mhos 0 - None None - -
Date/Time
(MST)
Sf
Temp Chem Water Layer Surface Precipitation
Sfc Pvt Sub Frz Factor Pct Dpth DpthThk IcePct Cond Salin FI Type Intens Accum Rate
01/23/2017 14:53 Wet 35.1F - - 32F 5 0% 0.00 in - 0% 0 mhos 0 - None None - -
01/23/2017 14:43 Wet 36.0F - - 32F 5 0% 0.00 in - 0% 0 mhos 0 - None None - -
01/23/2017 14:41 Wet 36.1F - - 32F 5 0% 0.00 in - 0% 0 mhos 0 - None None - -
01/23/2017 14:32 Wet 36.7F - - 32F 5 0% 0.00 in - 0% 0 mhos 0 - None None - -
01/23/2017 14:26 Wet 37.2F - - 32F 5 0% 0.00 in - 0% 0 mhos 0 - None None - -
01/23/2017 14:22 Wet 37.4F - - 32F 5 0% 0.00 in - 0% 0 mhos 0 - None None - -
Change End Date:

Copyright © 1998-2015 Vaisala, Inc.
All Rights Reserved
Send comments about the data to:
SCAN Web ® is a registered trademark of Vaisala, Inc.
SCAN Web Version 6.0